Regional Weather Roundup
Issued by NWS

Home | Current Version | Previous Version | Text Only | Print | Product List | Glossary Off
Versions: 1 2 3 4 5 6 7 8 9 10 11 12 13 14 15 16 17 18 19 20 21 22 23 24 25 26 27 28 29 30 31 32 33 34 35 36 37 38 39 40 41 42 43 44 45 46 47 48 49

000
ASUS45 KCYS 271310
RWRWY

WYOMING REGIONAL WEATHER ROUNDUP
NATIONAL WEATHER SERVICE CHEYENNE WY
600 AM MST TUE JAN 27 2015

NOTE:  "FAIR" INDICATES FEW OR NO CLOUDS BELOW 12,000 FEET
WITH NO SIGNIFICANT WEATHER AND/OR OBSTRUCTIONS TO VISIBILITY.

WYZ001-271400-
YELLOWSTONE NATIONAL PARK

CITY           SKY/WX    TMP DP  RH WIND       PRES   REMARKS
LK YELLOWSTONE   N/A      5   1  83 CALM      30.26S
W YELLOWSTONE  NOT AVBL

$$
WYZ002>013-054>058-071-098>099-271400-
NORTHERN WYOMING

CITY           SKY/WX    TMP DP  RH WIND       PRES   REMARKS
JACKSON        CLOUDY    10   9  92 N5        30.26S VSB 1/4 WCI   2
CODY           FAIR      34  27  75 NE5       30.04R WCI  30
GREYBULL       FAIR      17  15  92 CALM      30.08F
WORLAND        FAIR      18  16  92 CALM      30.08S
SHERIDAN       FAIR      39  23  52 CALM      29.96S
BUFFALO        FAIR      50  20  30 W3        30.01F
GILLETTE       FAIR      50  26  39 SW13      29.99S
HULETT           N/A    N/A N/A N/A MISG        N/A
NEWCASTLE      FAIR      32  27  80 CALM      30.06S

$$
WYZ014>020-022>026-101>103-271400-
CENTRAL WYOMING

CITY           SKY/WX    TMP DP  RH WIND       PRES   REMARKS
BIG PINEY      FAIR      14  10  84 NW3       30.26F
PINEDALE       FAIR       9   9 100 NW8       30.27S WCI  -4
DUBOIS         FAIR      34  18  51 NW15      30.18F WCI  24
LANDER         FAIR      29  23  78 CALM      30.13S
RIVERTON       FAIR      25  22  88 N7        30.14F WCI  17
CASPER         FAIR      45  24  43 SW6       30.12F
DOUGLAS        FAIR      41  23  48 NW9       30.10S

$$
WYZ021-027>030-104>119-271400-
SOUTHERN WYOMING

CITY           SKY/WX    TMP DP  RH WIND       PRES   REMARKS
EVANSTON       FAIR      35  24  64 E8        30.23S WCI  29
KEMMERER       FAIR      25  19  80 N9        30.25S WCI  15
FORT BRIDGER   FAIR      29  28  94 W3        30.27S
ROCK SPRINGS   FAIR      27  22  81 E5        30.22F WCI  22
DIXON          FAIR      20  17  88 CALM      30.32S
RAWLINS        FAIR      30  22  72 SE6       30.26S WCI  24
SARATOGA       FAIR      32  23  69 SE9       30.29R WCI  24
LARAMIE        FAIR      30  20  66 SW12      30.25F WCI  20
CHEYENNE       FAIR      43  18  36 W12       30.15F
TORRINGTON     FAIR      34  26  72 CALM      30.07R
PINE BLUFFS    FAIR      34  23  64 S7        30.12S WCI  28

$$


USA.gov is the U.S. government's official web portal to all federal, state and local government web resources and services.